Weather Roundup
Issued by NWS

Home | Current Version | Previous Version | Text Only | Print | Product List | Glossary On
Versions: 1 2 3 4 5 6 7 8 9 10 11 12 13 14 15 16 17 18 19 20 21 22 23 24 25 26 27 28 29 30 31 32 33 34 35 36 37 38 39 40 41 42 43 44 45 46 47 48 49 50
000
NZUS93 KARX 272310
HRRWXR

CURRENT HOURLY OBSERVATIONS ACROSS
MUCH OF THE UPPER MISSISSIPPI VALLEY
NATIONAL WEATHER SERVICE LA CROSSE WI
600 PM CDT SAT AUG 27 2016


...SOUTHEAST MINNESOTA...


CITY           SKY/WX    TMP DP  RH WIND       PRES   REMARKS
ROCHESTER      CLOUDY    70  65  84 SW5       30.02S
ROCHESTER/MAYO CLOUDY    69  67  95 CALM      30.02S
WINONA         CLOUDY    70  64  83 SE5       30.01S
AUSTIN         CLOUDY    72  64  78 CALM      30.01S
ALBERT LEA     MOSUNNY   72  64  78 W3        30.01S
DODGE CENTER   CLOUDY    70  64  83 W5        30.02S
PRESTON        CLOUDY    70  64  82 CALM      30.03S
OWATONNA       MOSUNNY   70  63  78 CALM      30.01S
FARIBAULT      PTSUNNY   70  64  83 SW3       30.01S
$$

...ELSEWHERE IN MINNESOTA...


CITY           SKY/WX    TMP DP  RH WIND       PRES   REMARKS
MINNEAPOLIS    CLOUDY    67  62  84 SW5       30.00S
INTNL FALLS    LGT RAIN  57  55  93 S3        30.01R
DULUTH         CLOUDY    63  58  83 E7        30.02S
RED WING       CLOUDY    66  64  94 CALM      30.00R
REDWOOD FALLS  PTSUNNY   72  62  71 S7        29.98S
MANKATO        CLOUDY    72  63  73 W6        30.00S
WORTHINGTON    NOT AVBL
FAIRMONT       MOSUNNY   73  64  73 W6        30.01R
$$

...SOUTHWEST WISCONSIN...


CITY           SKY/WX    TMP DP  RH WIND       PRES   REMARKS
LA CROSSE      CLOUDY    71  65  81 SE6       30.01R
PRAIRIE DU CHI CLOUDY    73  65  76 CALM      30.02R
BOSCOBEL       CLOUDY    72  67  84 E3        30.03R
LONE ROCK      CLOUDY    70  66  87 CALM      30.03R
PLATTEVILLE    MOSUNNY   74  72  91 W5        30.03S
FORT MC COY    CLOUDY    66  64  91 CALM      30.04R
CAMP DOUGLAS   CLOUDY    66  64  93 S3        30.04R
MAUSTON-NEW LI CLOUDY    66  65  96 CALM      30.03R FOG
VIROQUA        CLOUDY    67  67 100 S3        30.04R
WIS DELLS      CLOUDY    65  63  93 CALM      30.04R
$$

...ELSEWHERE IN WISCONSIN...


CITY           SKY/WX    TMP DP  RH WIND       PRES   REMARKS
MILWAUKEE      CLOUDY    81  70  69 VRB6      30.00S
MADISON        PTSUNNY   74  68  81 NW5       30.01S
GREEN BAY      CLOUDY    64  64 100 NE6       30.04R FOG
EAU CLAIRE     CLOUDY    66  63  90 S5        30.01S
BLACK RVR FLS  CLOUDY    67  65  95 SE3       30.02S
MEDFORD        CLOUDY    63  63 100 S7        30.03S
WAUSAU         CLOUDY    64  60  87 SE7       30.03S
WIS RAPIDS     CLOUDY    66  63  90 E3        30.05R
MARSHFIELD     CLOUDY    65  61  87 SE7       30.04R
RICE LAKE      CLOUDY    63  61  92 E3        30.03S
$$

...NORTHEAST IOWA...


CITY           SKY/WX    TMP DP  RH WIND       PRES   REMARKS
WATERLOO       CLOUDY    75  66  73 CALM      30.01R
DUBUQUE        MOSUNNY   77  68  73 W7        30.03S
DECORAH        CLOUDY    72  68  88 SW5       30.02S
MASON CITY     MOSUNNY   75  65  70 SW3       30.02F
CHARLES CITY   CLOUDY    73  70  88 CALM      30.02S
OELWEIN        PTSUNNY   73  68  83 W6        30.04R
$$

...ELSEWHERE IN IOWA...


CITY           SKY/WX    TMP DP  RH WIND       PRES   REMARKS
DES MOINES     PTSUNNY   82  68  62 SW6       29.99S
IOWA CITY      PTSUNNY   82  70  66 W6        30.02R
FORT DODGE     MOSUNNY   77  68  73 SW7       30.01S
MARSHALLTOWN   CLOUDY    75  67  76 W3        30.01R
CEDAR RAPIDS   PTSUNNY   80  71  74 SW6       30.01R
$$

...NORTHERN ILLINOIS...


CITY           SKY/WX    TMP DP  RH WIND       PRES   REMARKS
CHICAGO-OHARE  PTSUNNY   81  69  67 SW10      30.01R
CHICAGO-MIDWAY PTSUNNY   84  69  60 S14       30.00S
MOLINE         PTSUNNY   83  71  67 SW5       30.00R
ROCKFORD       PTSUNNY   81  70  69 W7        30.02R
PEORIA         PTSUNNY   83  74  74 S5        30.02S
$$

NOTE: "FAIR" INDICATES FEW OR NO CLOUDS BELOW 12,000 FEET WITH NO
SIGNIFICANT WEATHER AND/OR OBSTRUCTIONS TO VISIBILITY. WIND
SPEEDS ARE IN MILES-PER-HOUR.




USA.gov is the U.S. government's official web portal to all federal, state and local government web resources and services.